Franklin, PA

5:39 PM EDT on October 18, 2019 (GMT -0400)
Venango Regional

Weather History for KFKL - August, 2019

Change the Weather History Date:

Monday, August 19, 2019

  Actual Average Record
Temperature  
Mean Temperature 72 °F -  
Max Temperature 81 °F 80 °F 93 °F (1935)
Min Temperature 62 °F 56 °F 42 °F (1962)
Cooling Degree Days 6    
Growing Degree Days 22 (Base 50)    
Moisture  
Dew Point 65 °F    
Average Humidity 87    
Maximum Humidity 100    
Minimum Humidity 60    
Precipitation  
Precipitation 0.30 in - - ()
Sea Level Pressure  
Sea Level Pressure 30.05 in    
Wind  
Wind Speed 6 mph (WSW)    
Max Wind Speed 13 mph    
Max Gust Speed 23 mph    
Visibility 7 miles    
Events Fog , Rain , Thunderstorm    
Averages and records for this station are not official NWS values.
T = Trace of Precipitation, MM = Missing Value Source: NWS Daily Summary

Daily Weather History Graph

Daily Weather History Graph

Search for Another Location

Airport or City:

Astronomy

Aug. 19, 2019 Rise Set
Actual Time 6:32 AM EDT 8:13 PM EDT
Civil Twilight 6:02 AM EDT 8:42 PM EDT
Nautical Twilight 5:27 AM EDT 9:17 PM EDT
Astronomical Twilight 4:49 AM EDT 9:55 PM EDT
Moon 10:31 PM EDT (8/19) 10:14 AM EDT (8/19)
Length of Visible Light 14h 39m
Length of Day
13h 40m
Waning Gibbous, 85% of the Moon is Illuminated
Aug 19
Waning Gibbous
Aug 23
Last Quarter
Aug 30
New
Sep 5
First Quarter
Sep 14
Full

Hourly Weather History & Observations

Time (EDT) Temp. Heat Index Dew Point Humidity Pressure Visibility Wind Dir Wind Speed Gust Speed Precip Events Conditions
12:56 AM 66.9 °F - 64.0 °F 90% 29.95 in 10.0 mi Variable 5.8 mph - N/A   Clear
1:56 AM 66.9 °F - 64.9 °F 93% 29.94 in 10.0 mi SSW 4.6 mph - N/A   Clear
2:12 AM 66.2 °F - 64.4 °F 94% 30.01 in 10.0 mi WNW 10.4 mph 18.4 mph N/A Thunderstorm Partly Cloudy
2:31 AM 66.2 °F - 64.4 °F 94% 30.05 in 3.0 mi WNW 12.7 mph 23.0 mph 0.23 in Rain , Thunderstorm Heavy Thunderstorms and Rain
2:37 AM 66.2 °F - 64.4 °F 94% 30.04 in 6.0 mi NW 9.2 mph - 0.26 in Rain , Thunderstorm Rain
2:45 AM 66.2 °F - 64.4 °F 94% 30.03 in 9.0 mi Variable 5.8 mph - 0.27 in Rain Light Rain
2:49 AM 66.2 °F - 64.4 °F 94% 30.03 in 10.0 mi NNW 6.9 mph - 0.27 in Rain Light Rain
2:56 AM 66.0 °F - 64.9 °F 96% 30.00 in 10.0 mi NW 5.8 mph - 0.28 in Rain Rain
3:56 AM 64.9 °F - 64.9 °F 100% 29.98 in 10.0 mi ESE 5.8 mph - 0.01 in   Scattered Clouds
4:56 AM 64.9 °F - 64.0 °F 97% 29.97 in 10.0 mi ESE 8.1 mph - 0.00 in Rain Light Rain
5:56 AM 64.0 °F - 63.0 °F 96% 29.99 in 3.0 mi Calm Calm - 0.00 in   Clear
6:23 AM 62.6 °F - 62.6 °F 100% 30.02 in 2.0 mi WSW 3.5 mph - 0.01 in   Clear
6:28 AM 62.6 °F - 62.6 °F 100% 30.02 in 1.0 mi West 4.6 mph - 0.01 in   Mist
6:32 AM 62.6 °F - 62.6 °F 100% 30.03 in 0.5 mi West 4.6 mph - 0.01 in Fog Fog
6:38 AM 62.6 °F - 62.6 °F 100% 30.03 in 1.2 mi Calm Calm - 0.01 in   Partly Cloudy
6:41 AM 62.6 °F - 62.6 °F 100% 30.02 in 4.0 mi SSW 3.5 mph - 0.01 in   Partly Cloudy
6:50 AM 62.6 °F - 62.6 °F 100% 30.03 in 1.2 mi SSW 3.5 mph - 0.01 in   Partly Cloudy
6:52 AM 62.6 °F - 62.6 °F 100% 30.03 in 0.5 mi SSW 3.5 mph - 0.01 in Fog Fog
6:56 AM 62.1 °F - 62.1 °F 100% 30.02 in 0.2 mi SSW 4.6 mph - 0.01 in Fog Fog
7:10 AM 62.6 °F - 62.6 °F 100% 30.04 in 0.2 mi SSW 4.6 mph - N/A Fog Fog
7:30 AM 62.6 °F - 62.6 °F 100% 30.06 in 0.5 mi SW 6.9 mph - N/A Fog Fog
7:33 AM 62.6 °F - 62.6 °F 100% 30.06 in 0.2 mi SW 8.1 mph - N/A Fog Fog
7:46 AM 64.4 °F - 64.4 °F 100% 30.07 in 0.8 mi SW 6.9 mph - N/A   Overcast
7:49 AM 64.4 °F - 64.4 °F 100% 30.07 in 2.0 mi SW 6.9 mph - N/A   Overcast
7:56 AM 64.9 °F - 64.0 °F 97% 30.06 in 9.0 mi SW 5.8 mph - N/A   Overcast
8:12 AM 64.4 °F - 64.4 °F 100% 30.08 in 10.0 mi SW 6.9 mph - N/A   Mostly Cloudy
8:56 AM 68.0 °F - 64.9 °F 90% 30.07 in 10.0 mi SW 5.8 mph - N/A   Clear
9:16 AM 69.8 °F - 64.4 °F 83% 30.09 in 10.0 mi SW 6.9 mph - N/A   Partly Cloudy
9:56 AM 71.1 °F - 66.0 °F 84% 30.08 in 10.0 mi Variable 5.8 mph - N/A   Overcast
10:56 AM 73.0 °F - 64.9 °F 76% 30.09 in 10.0 mi Variable 3.5 mph - N/A   Partly Cloudy
11:33 AM 75.2 °F - 64.4 °F 69% 30.11 in 10.0 mi WSW 6.9 mph - N/A   Mostly Cloudy
11:56 AM 75.9 °F - 64.9 °F 69% 30.08 in 10.0 mi Variable 4.6 mph - N/A   Mostly Cloudy
12:04 PM 75.2 °F - 64.4 °F 69% 30.10 in 10.0 mi Calm Calm - N/A   Scattered Clouds
12:33 PM 78.8 °F - 66.2 °F 65% 30.11 in 10.0 mi West 8.1 mph - N/A   Mostly Cloudy
12:43 PM 78.8 °F - 66.2 °F 65% 30.11 in 10.0 mi Variable 6.9 mph - N/A   Mostly Cloudy
12:56 PM 78.1 °F - 66.0 °F 66% 30.08 in 10.0 mi WNW 6.9 mph - N/A   Mostly Cloudy
1:56 PM 77.0 °F - 66.0 °F 69% 30.09 in 10.0 mi Variable 4.6 mph - N/A   Mostly Cloudy
2:56 PM 79.0 °F - 66.9 °F 66% 30.08 in 10.0 mi West 6.9 mph - N/A   Mostly Cloudy
3:56 PM 80.1 °F 82.3 °F 66.9 °F 64% 30.07 in 10.0 mi NW 5.8 mph - N/A   Overcast
4:56 PM 81.0 °F 83.0 °F 66.0 °F 60% 30.07 in 10.0 mi West 6.9 mph - N/A   Partly Cloudy
5:56 PM 80.1 °F 82.1 °F 66.0 °F 62% 30.06 in 10.0 mi WNW 5.8 mph - N/A   Scattered Clouds
6:56 PM 79.0 °F - 66.0 °F 64% 30.06 in 10.0 mi WNW 3.5 mph - N/A   Clear
7:56 PM 75.0 °F - 66.0 °F 73% 30.06 in 10.0 mi Calm Calm - N/A   Clear
8:56 PM 71.1 °F - 66.0 °F 84% 30.06 in 10.0 mi Calm Calm - N/A   Clear
9:56 PM 70.0 °F - 66.0 °F 87% 30.09 in 10.0 mi ENE 3.5 mph - N/A   Clear
10:56 PM 69.1 °F - 66.0 °F 90% 30.11 in 10.0 mi NE 3.5 mph - N/A   Clear
11:56 PM 66.9 °F - 66.0 °F 97% 30.12 in 10.0 mi Calm Calm - N/A   Clear